Regional Weather Roundup
Issued by NWS

Home | Current Version | Previous Version | Graphics & Text | Print | Product List | Glossary On
Versions: 1 2 3 4 5 6 7 8 9 10 11 12 13 14 15 16 17 18 19 20 21 22 23 24 25 26 27 28 29 30 31 32 33 34 35 36 37 38 39 40 41 42 43 44 45 46 47 48 49 50
000
ASUS45 KCYS 190210
RWRWY

WYOMING REGIONAL WEATHER ROUNDUP
NATIONAL WEATHER SERVICE CHEYENNE WY
800 PM MDT SAT OCT 18 2014

NOTE:  "FAIR" INDICATES FEW OR NO CLOUDS BELOW 12,000 FEET
WITH NO SIGNIFICANT WEATHER AND/OR OBSTRUCTIONS TO VISIBILITY.

WYZ001-190300-
YELLOWSTONE NATIONAL PARK

CITY           SKY/WX    TMP DP  RH WIND       PRES   REMARKS
LK YELLOWSTONE   N/A     39  29  67 CALM      30.22R
W YELLOWSTONE  NOT AVBL

$$
WYZ002>013-054>058-071-098>099-190300-
NORTHERN WYOMING

CITY           SKY/WX    TMP DP  RH WIND       PRES   REMARKS
JACKSON        CLEAR     46  32  57 CALM      30.14R
CODY           CLEAR    N/A N/A N/A CALM      30.03R
GREYBULL       CLEAR     60  28  29 NW10      29.96R
WORLAND        CLEAR     55  32  41 E3        29.96S
SHERIDAN       CLEAR     52  36  54 CALM      29.98R
BUFFALO        PTCLDY    53  33  46 W7        30.03R
GILLETTE       MOCLDY    53  37  54 S7        29.99R
HULETT         FAIR      52  37  58 S9        29.99
NEWCASTLE      FAIR      50  36  57 N6        30.00

$$
WYZ014>020-022>026-101>103-190300-
CENTRAL WYOMING

CITY           SKY/WX    TMP DP  RH WIND       PRES   REMARKS
BIG PINEY      CLEAR     46  25  43 N12       30.16R
PINEDALE       CLEAR     41  30  65 W8        30.17R
DUBOIS         FAIR      48  27  43 NW9       30.14S
LANDER         CLEAR     54  34  46 SW13      30.04R
RIVERTON       CLEAR     49  28  44 NW7       30.05R
CASPER         MOCLDY    49  34  56 CALM      30.03R
DOUGLAS        PTCLDY    57  38  48 E13       30.03R

$$
WYZ021-027>030-104>119-190300-
SOUTHERN WYOMING

CITY           SKY/WX    TMP DP  RH WIND       PRES   REMARKS
EVANSTON       CLEAR     54  28  36 N6        30.18R
KEMMERER       CLEAR     50  30  46 NW10      30.18R
FORT BRIDGER   FAIR      53  27  36 SW8       30.18R
ROCK SPRINGS   PTCLDY    54  25  32 S5        30.14R
DIXON          HAZE      44  31  60 CALM      30.16S VSB<1/4
RAWLINS        PTCLDY    51  26  37 SW7       30.13R
SARATOGA       FAIR      50  27  40 SW13      30.15S
LARAMIE        PTCLDY    55  29  36 NE6       30.15R
CHEYENNE       CLEAR     51  34  52 W6        30.11R
TORRINGTON     CLEAR     53  39  59 E8        29.99R
PINE BLUFFS    FAIR      50  37  62 SW6       30.07S

$$


USA.gov is the U.S. government's official web portal to all federal, state and local government web resources and services.